DECAYED

OBJECT BA, 61783 (Decayed)

Orbit data source: Space-Track

You're viewing an Uncataloged Satellite

Recently launched and/or uncataloged satellites may have evolving metadata. Metadata may include but not limited to: Owner, Maufacturer, Bus, Motor, and Mission.

OBJECT BA, 61783 was a satellite in LEO that was launched on Mon, 04 Nov 2024 UTC via a SOYUZ-2-1B launch vehicle from the Vostochny Cosmodrome (VOSTO). Unknown objects in Earth's orbit typically refer to objects detected orbiting the Earth but have not yet been identified or cataloged. These objects could be anything from previously untracked satellites, spent rocket stages, debris from satellite collisions, or even natural meteoroids temporarily captured by Earth's gravity. This object's orbit decayed before it could be identified.

Not visible in the next 10 days
Identifier
61783, 2024-199BA
Orbit
Decayed
Country
Flag of TBDTBD
Related business
Flag of ZWZimbabwe National Geospatial and Space Agency (ZW)
Manufacturer
Yugo-Zapad. GU
Mission
Decayed Civil Imaging
Bus & Motor
CUBESAT 3U, Unknown motor
Mass
5 kg wet, 5 kg dry
Launch date (UTC)
2024-11-04 (2 years ago)
Launch vehicle
SOYUZ-2-1B
Launch site
Vostochny Cosmodrome (VOSTO)
Object type
Unknown
Shape & HBR
Box, 0.1 m
Radar Cross Section
0.035 m², Small (<0.1 m²)

Expand to show TLE details & history
Last TLE update: 4 months ago

TLE from 4 months ago
0 OBJECT BA
1 61783U 24199BA  26020.03020647  .10538765  26509-5  13731-2 0  9991
2 61783  97.2775 260.7788 0001295 180.7662 179.3634 16.35808916115084
Epoch: 2026-01-20T00:43Z
TLE epoch observation values (Epoch: 2026-01-20T00:43:29.839Z)
Latitude
-0.00004°
Longitude
130.48655°
Altitude
181.074 km
Speed
7.797 km/s
True Right ascension
17h 23m 06s
True Declination
0° 00' 00"
Sunlit
Object was in daylight at epoch
Visualization orbit readout
Latitude
Unknown
Longitude
Unknown
Altitude
Unknown
Speed
Unknown
Apparent Right ascension
Unknown
Apparent Declination
Unknown
Sunlit
N/A
Visualization observer readout
Local Sidereal Time
18:48:08
Azimuth
Unknown
Elevation
Unknown
Doppler factor
Unknown
Orbital elements
Apogee altitude
174.631 km
Perigee altitude
172.934 km
Semi-major axis
6,551.92 km
Eccentricity
0.00013
Inclination
97.2775°
RAAN
260.7788°
Arg. of periapsis
180.7662°
True anomaly
179.36356°
Mean anomaly
179.3634°
Eccentric anomaly
179.36348°
Mean motion
4.09252 °/min
Orbital period
87.97 mins
BSTAR
0.0013731
Loading maneuver chart data...
Computing Atmospheric mass density...
Loading historical data...
Loading historical data...
Loading historical data...
Loading historical data...
Loading historical data...
Loading historical data...
Loading historical data...

Documentation

Showing up to 5 results
|